Regional Weather Roundup
Issued by NWS

Home | Current Version | Previous Version | Text Only | Print | Product List | Glossary On
Versions: 1 2 3 4 5 6 7 8 9 10 11 12 13 14 15 16 17 18 19 20 21 22 23 24 25 26 27 28 29 30 31 32 33 34 35 36 37 38 39 40 41 42 43 44 45 46 47 48 49 50
000
ASUS44 KFWD 130815
RWRTX
NORTH TEXAS HOURLY WEATHER ROUNDUP
NATIONAL WEATHER SERVICE FORT WORTH TX
200 AM CST WED DEC 13 2017

NOTE: "FAIR" INDICATES FEW OR NO CLOUDS BELOW 12,000 FEET WITH NO
SIGNIFICANT WEATHER AND/OR OBSTRUCTIONS TO VISIBILITY.

TXZ118-119-130900-
DALLAS/FORT WORTH METROPLEX

CITY           SKY/WX    TMP DP  RH WIND       PRES   REMARKS
DFW AIRPORT    CLEAR     37  29  72 S6        30.11F WCI  32
DALLAS LOVE    CLEAR     43  30  60 SW5       30.13F
FTW MEACHAM    CLOUDY    39  29  67 S5        30.12F WCI  36
DAL-EXECUTIVE  CLOUDY    38  28  67 S5        30.13F WCI  34
FTW-ALLIANCE   CLOUDY    40  27  59 SW6       30.11F WCI  36
FTW-NAS-JRB    CLOUDY    39  26  59 CALM      30.14F
FTW-SPINKS     CLOUDY    32  26  78 S6        30.15F WCI  26
ARLINGTON      CLOUDY    31  27  85 S3        30.14F
GRAND PRAIRIE  CLOUDY    38  27  64 S6        30.15F WCI  33
ADDISON        PTCLDY    42  30  61 CALM      30.14F
MESQUITE       CLOUDY    31  26  79 S6        30.15F WCI  26
LANCASTER      CLOUDY    33  26  75 CALM      30.16F
$$

TXZ091>094-102>105-117-120-121-131>134-130900-
NORTH CENTRAL TEXAS

CITY           SKY/WX    TMP DP  RH WIND       PRES   REMARKS
SHRMAN/DENISON CLOUDY    37  27  67 S5        30.11F WCI  33
GAINESVILLE    CLOUDY    32  23  69 S5        30.12F WCI  27
BOWIE          CLOUDY    34  26  70 S5        30.10S WCI  30
BRIDGEPORT     CLOUDY    40  26  58 SW6       30.13F WCI  36
DECATUR        PTCLDY    43  25  49 SW9       30.10F WCI  38
DENTON         CLOUDY    35  26  69 S6        30.12F WCI  30
MCKINNEY       PTCLDY    31  25  78 S3        30.13F
BONHAM         PTCLDY    33  25  72 S7        30.12F WCI  26
GREENVILLE     PTCLDY    34  28  80 CALM      30.14F
ROCKWALL       PTCLDY    38  28  67 S7        30.14F WCI  33
TERRELL        CLOUDY    32  24  72 CALM      30.16F
WAXAHACHIE     CLOUDY    37  29  72 SW3       30.16F
CLEBURNE       CLOUDY    36  28  75 SW7       30.16F WCI  30
GRANBURY       CLOUDY    32  26  78 CALM      30.16F
$$

TXZ083>090-098>101-113>116-127>130-139>142-154-155-130900-
WESTERN NORTH TEXAS

CITY           SKY/WX    TMP DP  RH WIND       PRES   REMARKS
WICHITA FALLS  CLOUDY    40  23  50 SW14      30.06F WCI  32
WF-KICKAPOO    CLOUDY    42  23  47 SW6       30.10F WCI  38
VERNON         CLOUDY    40  13  33 SW9       30.07F WCI  34
ABILENE        CLOUDY    37  20  50 S7        30.15F WCI  32
ABILENE-DYESS  CLOUDY    31  19  61 S5        30.15F WCI  26
GRAHAM           N/A     33  24  71 CALM      30.11F
BRECKENRIDGE   CLOUDY    40  22  48 SW5       30.13F WCI  37
CISCO          CLOUDY    45  19  36 SW13      30.15F WCI  38
EASTLAND       CLOUDY    23  18  81 CALM      30.15F
RANGER         CLOUDY    42  24  47 SW10      30.14F WCI  36
MINERAL WELLS  CLOUDY    32  23  69 S5        30.12F WCI  27
STEPHENVILLE   CLOUDY    34  25  69 CALM      30.17F
COMANCHE       PTCLDY    45  24  43 SW14      30.16F WCI  38
BROWNWOOD      MOCLDY    25  16  68 CALM      30.19F
COLEMAN        CLOUDY    34  22  60 CALM      30.17F
$$

TXZ143>147-156>162-174-175-130900-
CENTRAL TEXAS

CITY           SKY/WX    TMP DP  RH WIND       PRES   REMARKS
WACO           CLOUDY    32  28  85 SW6       30.18F WCI  26
WACO-MCGREGOR  CLOUDY    32  26  78 SW8       30.19F WCI  25
HILLSBORO      CLOUDY    33  27  77 CALM      30.16F
CORSICANA      CLOUDY    35  27  72 SW5       30.18F WCI  31
MEXIA          CLOUDY    36  25  64 S3        30.17F
HEARNE         CLOUDY    30  27  90 CALM      30.22F
CAMERON        PTCLDY    35  30  80 CALM      30.21S
TEMPLE         PTCLDY    33  28  81 S3        30.20F
KILLEEN        CLOUDY    44  25  47 CALM      30.18F
KILLEEN-SKYLRK PTCLDY    37  28  70 W6        30.20F WCI  32
FORT HOOD      PTCLDY    37  27  66 W3        30.16F
GATESVILLE     CLOUDY    34  25  69 CALM      30.20F
HAMILTON       CLOUDY    35  26  69 SW9       30.18F WCI  28
LAMPASAS       PTCLDY    35  26  68 W5        30.18S WCI  31
$$

TXZ095>097-106>112-122>126-135>138-148>153-164>167-130900-
EAST TEXAS

CITY           SKY/WX    TMP DP  RH WIND       PRES   REMARKS
PARIS          PTCLDY    33  19  56 SW3       30.14F
SULPHUR SPRNGS CLOUDY    37  24  61 CALM      30.16F
MOUNT PLEASANT PTCLDY    30  24  79 CALM      30.18S
GILMER         CLOUDY    30  24  79 CALM      30.16S
MINEOLA        CLOUDY    28  25  86 CALM      30.15F
TYLER          CLOUDY    30  27  88 SW3       30.16F
LONGVIEW       CLOUDY    30  27  88 S5        30.16F WCI  25
MARSHALL       CLOUDY    28  25  89 CALM      30.19S
ATHENS         CLOUDY    27  21  80 CALM      30.17F
PALESTINE      CLOUDY    30  28  90 CALM      30.20S
JACKSONVILLE   CLOUDY    40  25  54 CALM      30.18F
HENDERSON      CLOUDY    28  25  86 CALM      30.18F
CENTER         CLOUDY    29  27  90 CALM      30.19S
NACOGDOCHES    CLOUDY    25  23  92 CALM      30.19F
LUFKIN         CLOUDY    30  28  92 CALM      30.19F
$$

SUPPLEMENTAL OBSERVATIONS (NWS FORT WORTH AREA)

CITY           SKY/WX    TMP DP  RH WIND       PRES   REMARKS
DENISON DAM      N/A     41  30  65 S1          N/A
PAT MAYSE LAKE   N/A     39  23  52 SE3         N/A
POSSUM KINGDOM   N/A     45  23  42 SW3         N/A
GRANBURY         N/A     32  27  80 E1          N/A
COMANCHE         N/A     45  21  39 SW14        N/A  WCI  38
MCGREGOR         N/A     32  28  86 SW2         N/A
TEMPLE           N/A     39  32  75 W5          N/A  WCI  36
LAKE LIMESTONE   N/A     32  28  86 CALM        N/A
ATHENS           N/A     34  32  93 S1          N/A
$$

SUPPLEMENTAL OBSERVATIONS (NWS NORMAN AREA)

CITY           SKY/WX    TMP DP  RH WIND       PRES   REMARKS
GOODLETT         N/A     35  14  41 SW8       30.07S WCI  29
ODELL            N/A     42  15  34 SW13      30.07S WCI  35
CROWELL          N/A     43  14  30 W9        30.09F WCI  38
KNOX CITY        N/A     40  15  35 SW8       30.12F WCI  34
SEYMOUR          N/A     37  20  49 SW7       30.10F WCI  32
MILLERS CREEK    N/A     36  23  60 S9          N/A  WCI  29
$$

SUPPLEMENTAL OBSERVATIONS (NWS SAN ANGELO AREA)

CITY           SKY/WX    TMP DP  RH WIND       PRES   REMARKS
WEINERT          N/A     39  17  42 SW7       30.12F WCI  34
HASKELL          N/A     38  16  41 SW8       30.12F WCI  32
THROCKMORTON     N/A     42  21  42 SW13      30.12F WCI  35
STAMFORD         N/A     32  18  55 SW9       30.14F WCI  24
CLYDE            N/A     44  18  34 SW9       30.16F WCI  39
HAMBY            N/A     37  19  48 S6          N/A  WCI  33
IVIE RESERVOIR   N/A     37  30  75 NW3         N/A
COLORADO BEND    N/A     39  21  48 W3          N/A
$$

SUPPLEMENTAL OBSERVATIONS (NWS SHREVEPORT AREA)

CITY           SKY/WX    TMP DP  RH WIND       PRES   REMARKS
CLARKSVILLE      N/A     32  16  51 S1          N/A
CADDO LAKE       N/A     27  23  86 CALM        N/A
GILMER           N/A     30  27  86 CALM        N/A
HENDERSON        N/A     28  27  93 CALM        N/A
LUFKIN           N/A     32  30  93 MISG        N/A
S SABINE NF      N/A     32  32 100 SW1         N/A
$$

SUPPLEMENTAL OBSERVATIONS ARE A COLLECTION OF AUTOMATED INSTRUMENTS
THAT ARE MAINTAINED BY A VARIETY OF FEDERAL AND STATE AGENCIES.
CERTAIN ELEMENTS...SUCH AS HUMIDITY VALUES AND SUSTAINED WIND
SPEEDS...MAY BE APPROXIMATED.





USA.gov is the U.S. government's official web portal to all federal, state and local government web resources and services.